Regional Weather Roundup
Issued by NWS

Home | Current Version | Previous Version | Graphics & Text | Print | Product List | Glossary On
Versions: 1 2 3 4 5 6 7 8 9 10 11 12 13 14 15 16 17 18 19 20 21 22 23 24 25 26 27 28 29 30 31 32 33 34 35 36 37 38 39 40 41 42 43 44 45 46 47 48 49 50
135
ASUS43 KMKX 211259
RWRWI

WISCONSIN REGIONAL WEATHER ROUNDUP
NATIONAL WEATHER SERVICE MILWAUKEE/SULLIVAN WI
800 AM CDT SAT APR 21 2018

NOTE: "FAIR" INDICATES FEW OR NO CLOUDS BELOW 12,000 FEET WITH NO
SIGNIFICANT WEATHER AND/OR OBSTRUCTIONS TO VISIBILITY.

WIZ001-002-006>008-014>016-023>028-211400-
NORTHWEST WISCONSIN

CITY           SKY/WX    TMP DP  RH WIND       PRES   REMARKS
SUPERIOR ARPT  FAIR      37  23  57 W5        30.44R WCI  33
ASHLAND        FAIR      40  21  46 SW6       30.43S
HAYWARD        FAIR      31  23  72 CALM      30.44R
SIREN          FAIR      29  23  77 CALM      30.45R
CUMBERLAND     FAIR      28  21  74 CALM      30.44R
RICE LAKE      FAIR      31  24  77 CALM      30.46R
CHETEK         FAIR      30  25  83 CALM      30.45R
LADYSMITH      FAIR      34  26  72 CALM      30.45S
EAU CLAIRE     NOT AVBL
MENOMONIE      FAIR      35  29  78 CALM      30.45R
NEW RICHMOND   FAIR      32  29  88 CALM      30.45R
OSCEOLA        FAIR      32  28  86 CALM      30.48R
$$

WIZ003>005-009-010-017-018-211400-
NORTH CENTRAL WISCONSIN

CITY           SKY/WX    TMP DP  RH WIND       PRES   REMARKS
MANITOWISH WTR FAIR      25  20  79 CALM      30.42R
ARBOR VITAE    FAIR      29  21  70 CALM      30.42R
WOODRUFF       FAIR      29  21  70 CALM      30.42R
RHINELANDER    FAIR      35  19  52 CALM      30.43R
EAGLE RIVER    FAIR      29  21  70 CALM      30.41S
LAND O LAKES   FAIR      31  20  62 CALM      30.43S
PHILLIPS       FAIR      31  22  69 CALM      30.43R
TOMAHAWK       FAIR      29  19  66 CALM      30.44R
MEDFORD        FAIR      31  24  77 CALM      30.42R
MERRILL          N/A     31  23  73 CALM      30.45R
$$

WIZ029-030-035-036-043>047-211400-
CENTRAL WISCONSIN

CITY           SKY/WX    TMP DP  RH WIND       PRES   REMARKS
WAUSAU         FAIR      34  26  72 CALM      30.42R
MOSINEE        MOSUNNY   37  21  52 CALM      30.43S
MARSHFIELD     FAIR      37  23  56 CALM      30.42R
STEVENS POINT  FAIR      30  23  77 CALM      30.44S
WAUPACA        FAIR      35  26  70 CALM      30.45S
WAUTOMA        FAIR      33  28  81 CALM      30.46R
WISC RAPIDS    FAIR      35  21  56 CALM      30.45R
CAMP DOUGLAS   NOT AVBL
$$

WIZ011>013-019>022-031-037>040-048>050-211400-
NORTHEAST WISCONSIN

CITY           SKY/WX    TMP DP  RH WIND       PRES   REMARKS
ANTIGO         FAIR      32  26  78 CALM      30.43R
SHAWANO        FAIR      34  26  72 CALM      30.45R
OCONTO         FAIR      32  22  67 CALM      30.44R
STURGEON BAY   FAIR      43  23  45 SW5       30.45R
GREEN BAY      FAIR      36  27  69 S3        30.44F
MANITOWOC      FAIR      36  27  69 CALM      30.47R
APPLETON       PTSUNNY   37  18  44 CALM      30.44R
CLINTONVILLE   FAIR      33  22  63 CALM      30.44S
OSHKOSH        FAIR      36  23  59 CALM      30.45R
$$

WIZ032>034-041-042-053>061-211400-
SOUTHWEST WISCONSIN

CITY           SKY/WX    TMP DP  RH WIND       PRES   REMARKS
LA CROSSE      PTSUNNY   39  29  67 CALM      30.45R
SPARTA         FAIR      32  27  81 CALM      30.46R
VIROQUA        CLOUDY    39  28  65 SW3       30.43S
BOSCOBEL       CLOUDY    39  32  76 E3        30.46R
PRAIRIE DU CHI CLOUDY    39  32  76 CALM      30.44S
PLATTEVILLE    CLOUDY    43  29  58 E5        30.44R
$$

WIZ056-057-062-063-064-067-068-211400-
SOUTH CENTRAL WISCONSIN

CITY           SKY/WX    TMP DP  RH WIND       PRES   REMARKS
REEDSBURG      FAIR      33  29  87 CALM      30.45R
BARABOO/DELLS  FAIR      33  23  68 CALM      30.44R
LONE ROCK      CLOUDY    37  32  82 CALM      30.45R
MINERAL POINT  FAIR      45  27  49 CALM      30.44S
MADISON        CLOUDY    39  30  70 CALM      30.45R
MIDDLETON      FAIR      38  32  79 CALM      30.45R
WATERTOWN      FAIR      33  28  79 CALM      30.44S
MONROE         FAIR      43  19  39 S5        30.44R
JANESVILLE     CLOUDY    43  30  61 CALM      30.46R
$$

WIZ051-052-058>065-066-070>072-211400-
SOUTHEAST WISCONSIN

CITY           SKY/WX    TMP DP  RH WIND       PRES   REMARKS
MILWAUKEE      CLOUDY    40  26  57 CALM      30.47R
WAUKESHA       NOT AVBL
MILWAUKEE/TIMM SUNNY     34  25  69 CALM      30.47S
RACINE         FAIR      38  31  76 NE3       30.48R
BURLINGTON     FAIR      34  29  84 CALM      30.45R
KENOSHA        FAIR      38  29  70 NE3       30.46R
FOND DU LAC    FAIR      36  24  62 S3        30.45S
SHEBOYGAN      FAIR      35  31  85 SW3       30.46R
WEST BEND      FAIR      32  30  93 CALM      30.45S
JUNEAU         FAIR      36  22  58 E3        30.46R
$$

LSZ147-162-211400-
LAKE SUPERIOR

STATION/POSITION TIME  TEMP    WIND        PRES    WAVE
                       AIR SEA DIR/SP/G            HT/PER
                 (UTC) (F)     (DEG/KT/KT) (MB)    (FT/S)
DEVILS ISLAND    1200   41     230/ 11/ 12 1030.4R
SAXON HARBOR     1230   32     180/  2/  4 1029.5S
$$

LMZ867-665-643>646-211400-
LAKE MICHIGAN

STATION/POSITION TIME  TEMP    WIND        PRES    WAVE
                       AIR SEA DIR/SP/G            HT/PER
                 (UTC) (F)     (DEG/KT/KT) (MB)    (FT/S)
NORTHPORT PIER   1240   40                 1030.5R
KEWAUNEE LAKESHO 1230   34     230/  2/  3 1030.4R
SHEBOYGAN LAKESH 1200   38     220/  3/  3 1031.8R
PORT WASHINGTON  1230   38     250/  2/  2 1032.5R
MILWAUKEE LAKESH 1230   39        CALM       N/A
KENOSHA   LAKESH 1200   36                 1031.2
$$

TC  - TEMPERATURE IN CELSIUS
VSB - VISIBILITY IN STATUTE MILES
WCI - WIND CHILL INDEX
HX  - HEAT INDEX





USA.gov is the U.S. government's official web portal to all federal, state and local government web resources and services.